Location: Guilderland
(42.7045°N, 73.9115°W)
Time: 13:53:46
(UTC+00:00)

YAOGAN 6 - Pass Details

Date: 24 January 2020
Orbit: 465 x 505 km, 97.0° (Epoch: 24 February)

Event Time Altitude Azimuth Distance (km) Brightness Sun altitude
Rises 22:58:27 0° 169° (S) 2,589 6.3 -11.2°
Reaches altitude 10° 23:00:32 10° 170° (S) 1,706 5.4 -11.6°
Maximum altitude 23:04:13 82° 257° (WSW) 511 2.7 -12.2°
Drops below altitude 10° 23:07:54 10° 346° (NNW) 1,704 5.3 -12.9°
Sets 23:09:58 0° 348° (NNW) 2,585 6.2 -13.3°
